When you browse on this site, cookies collect data to enhance your experience and personalize the content and advertising you see.
Visit our Privacy Policy to learn more. By continuing to use the site, you agree to this use of cookies and data.
  • In Austria
  • List of Countries
  • For 7 days
  • Water Temperature
  • Weather Map
  • News
  • Weather Widgets
  • user-avatar
    Login

    Hourly Weather Kaprun

    Today, 9 December, Monday

    Time Temperature Precipitation Wind Pressure Humidity
    00:00 -6°C° 0 mm 2 mps 589 mmHg 60%
    01:00 -6°C° 0 mm 2 mps 589 mmHg 58%
    02:00 -6°C° 0 mm 2 mps 589 mmHg 58%
    03:00 -4°C° 0 mm 1 mps 588 mmHg 59%
    04:00 -4°C° 0 mm 1 mps 588 mmHg 59%
    05:00 -6°C° 0.1 mm 1 mps 588 mmHg 62%
    06:00 -6°C° 0.1 mm 1 mps 587 mmHg 65%
    07:00 -6°C° 0 mm 0 mps 587 mmHg 65%
    08:00 -5°C° 0.2 mm 0 mps 588 mmHg 69%
    09:00 -5°C° 0.2 mm 0 mps 588 mmHg 73%
    10:00 -4°C° 0.2 mm 0 mps 588 mmHg 77%
    11:00 -3°C° 0.2 mm 1 mps 588 mmHg 79%
    12:00 -2°C° 0.2 mm 1 mps 588 mmHg 80%
    13:00 -2°C° 0.2 mm 1 mps 587 mmHg 82%
    14:00 -2°C° 0.3 mm 1 mps 587 mmHg 84%
    15:00 -3°C° 0.3 mm 1 mps 587 mmHg 86%
    16:00 -3°C° 0.3 mm 1 mps 586 mmHg 88%
    17:00 -4°C° 0.1 mm 1 mps 586 mmHg 88%
    18:00 -4°C° 0.1 mm 1 mps 587 mmHg 88%
    19:00 -6°C° 0.1 mm 1 mps 587 mmHg 87%
    20:00 -6°C° 0 mm 1 mps 587 mmHg 87%
    21:00 -6°C° 0 mm 1 mps 588 mmHg 86%
    22:00 -6°C° 0 mm 1 mps 588 mmHg 85%
    23:00 -7°C° 0.3 mm 2 mps 588 mmHg 88%

    Tomorrow, 10 December, Tuesday

    Time Temperature Precipitation Wind Pressure Humidity
    00:00 -7°C° 0.3 mm 2 mps 589 mmHg 91%
    01:00 -7°C° 0.3 mm 2 mps 589 mmHg 94%
    02:00 -9°C° 0.5 mm 3 mps 590 mmHg 94%
    03:00 -9°C° 0.5 mm 3 mps 590 mmHg 95%
    04:00 -9°C° 0.5 mm 3 mps 591 mmHg 95%
    05:00 -9°C° 0.8 mm 3 mps 591 mmHg 95%
    06:00 -9°C° 0.8 mm 3 mps 592 mmHg 95%
    07:00 -9°C° 0.8 mm 3 mps 593 mmHg 95%
    08:00 -10°C° 0.6 mm 4 mps 594 mmHg 93%
    09:00 -10°C° 0.6 mm 4 mps 594 mmHg 92%
    10:00 -10°C° 0.6 mm 4 mps 595 mmHg 90%
    11:00 -10°C° 0.2 mm 4 mps 595 mmHg 87%
    12:00 -9°C° 0.2 mm 3 mps 595 mmHg 84%
    13:00 -10°C° 0.2 mm 3 mps 595 mmHg 81%
    14:00 -12°C° 0 mm 3 mps 594 mmHg 84%
    15:00 -12°C° 0 mm 2 mps 594 mmHg 87%
    16:00 -14°C° 0 mm 2 mps 593 mmHg 90%
    17:00 -14°C° 0 mm 2 mps 593 mmHg 80%
    18:00 -15°C° 0 mm 2 mps 593 mmHg 70%
    19:00 -15°C° 0 mm 2 mps 593 mmHg 60%
    20:00 -15°C° 0 mm 2 mps 594 mmHg 53%
    21:00 -14°C° 0 mm 2 mps 594 mmHg 46%
    22:00 -14°C° 0 mm 2 mps 594 mmHg 39%
    23:00 -13°C° 0 mm 2 mps 594 mmHg 36%

    Day after tomorrow, 11 December, Wednesday

    Time Temperature Precipitation Wind Pressure Humidity
    00:00 -12°C° 0 mm 2 mps 594 mmHg 33%
    01:00 -12°C° 0 mm 2 mps 594 mmHg 29%
    02:00 -10°C° 0 mm 2 mps 593 mmHg 28%
    03:00 -10°C° 0 mm 2 mps 593 mmHg 27%
    04:00 -9°C° 0 mm 2 mps 593 mmHg 26%
    05:00 -9°C° 0 mm 2 mps 592 mmHg 26%
    06:00 -8°C° 0 mm 2 mps 592 mmHg 25%
    07:00 -8°C° 0 mm 2 mps 592 mmHg 24%
    08:00 -4°C° 0 mm 1 mps 593 mmHg 28%
    09:00 -3°C° 0 mm 1 mps 593 mmHg 32%
    10:00 -1°C° 0 mm 1 mps 593 mmHg 35%
    11:00 0°C° 0 mm 1 mps 593 mmHg 42%
    12:00 +1°C° 0 mm 1 mps 593 mmHg 49%
    13:00 +1°C° 0 mm 0 mps 592 mmHg 55%
    14:00 -1°C° 0 mm 0 mps 591 mmHg 51%
    15:00 -3°C° 0 mm 0 mps 590 mmHg 48%
    16:00 -5°C° 0 mm 0 mps 588 mmHg 44%
    17:00 -4°C° 0 mm 1 mps 588 mmHg 43%
    18:00 -6°C° 0 mm 1 mps 588 mmHg 42%
    19:00 -6°C° 0 mm 1 mps 588 mmHg 41%
    20:00 -7°C° 0 mm 1 mps 588 mmHg 44%
    21:00 -8°C° 0 mm 2 mps 588 mmHg 46%
    22:00 -9°C° 0 mm 2 mps 587 mmHg 49%
    23:00 -9°C° 0 mm 2 mps 587 mmHg 58%

    12 December, Thursday

    Time Temperature Precipitation Wind Pressure Humidity
    00:00 -8°C° 0 mm 1 mps 587 mmHg 68%
    01:00 -8°C° 0 mm 1 mps 587 mmHg 78%
    02:00 -8°C° 0.1 mm 1 mps 587 mmHg 81%
    03:00 -8°C° 0.1 mm 1 mps 586 mmHg 85%
    04:00 -9°C° 0.1 mm 2 mps 586 mmHg 89%
    05:00 -9°C° 0.3 mm 2 mps 586 mmHg 91%
    06:00 -9°C° 0.3 mm 2 mps 586 mmHg 92%
    07:00 -9°C° 0.3 mm 2 mps 587 mmHg 93%
    08:00 -9°C° 0.1 mm 2 mps 587 mmHg 90%
    09:00 -8°C° 0.1 mm 2 mps 587 mmHg 86%
    10:00 -8°C° 0.1 mm 2 mps 587 mmHg 82%
    11:00 -8°C° 0.1 mm 2 mps 587 mmHg 79%
    12:00 -8°C° 0.1 mm 2 mps 587 mmHg 77%
    13:00 -8°C° 0.1 mm 2 mps 587 mmHg 75%
    14:00 -9°C° 0 mm 2 mps 587 mmHg 79%
    15:00 -9°C° 0 mm 1 mps 586 mmHg 84%
    16:00 -10°C° 0 mm 1 mps 586 mmHg 88%
    17:00 -11°C° 0 mm 1 mps 585 mmHg 86%
    18:00 -11°C° 0 mm 1 mps 585 mmHg 83%
    19:00 -14°C° 0 mm 2 mps 585 mmHg 81%
    20:00 -14°C° 0 mm 2 mps 584 mmHg 80%
    21:00 -15°C° 0 mm 3 mps 584 mmHg 80%
    22:00 -15°C° 0 mm 3 mps 584 mmHg 80%
    23:00 -16°C° 0 mm 4 mps 583 mmHg 80%

    13 December, Friday

    Time Temperature Precipitation Wind Pressure Humidity
    00:00 -15°C° 0 mm 4 mps 582 mmHg 80%
    01:00 -15°C° 0 mm 5 mps 581 mmHg 80%
    02:00 -14°C° 0.1 mm 5 mps 581 mmHg 80%
    03:00 -15°C° 0.1 mm 6 mps 580 mmHg 80%
    04:00 -14°C° 0.1 mm 6 mps 580 mmHg 80%
    05:00 -15°C° 0 mm 6 mps 579 mmHg 81%
    06:00 -15°C° 0 mm 6 mps 578 mmHg 81%
    07:00 -16°C° 0 mm 6 mps 577 mmHg 81%
    08:00 -15°C° 0.1 mm 6 mps 577 mmHg 81%
    09:00 -14°C° 0.1 mm 5 mps 577 mmHg 81%
    10:00 -13°C° 0.1 mm 5 mps 577 mmHg 81%
    11:00 -11°C° 0.2 mm 4 mps 577 mmHg 81%
    12:00 -9°C° 0.2 mm 3 mps 577 mmHg 81%
    13:00 -8°C° 0.2 mm 2 mps 577 mmHg 82%
    14:00 -8°C° 0.5 mm 2 mps 577 mmHg 83%
    15:00 -8°C° 0.5 mm 2 mps 577 mmHg 85%
    16:00 -8°C° 0.5 mm 2 mps 577 mmHg 86%
    17:00 -9°C° 0 mm 2 mps 577 mmHg 85%
    18:00 -10°C° 0 mm 2 mps 577 mmHg 83%
    19:00 -12°C° 0 mm 2 mps 576 mmHg 82%
    20:00 -12°C° 0 mm 2 mps 577 mmHg 79%
    21:00 -12°C° 0 mm 2 mps 577 mmHg 77%
    22:00 -12°C° 0 mm 2 mps 577 mmHg 74%
    23:00 -13°C° 0 mm 2 mps 578 mmHg 71%

    14 December, Saturday

    Time Temperature Precipitation Wind Pressure Humidity
    00:00 -13°C° 0 mm 2 mps 578 mmHg 69%
    01:00 -13°C° 0 mm 2 mps 578 mmHg 67%
    02:00 -13°C° 0 mm 2 mps 578 mmHg 66%
    03:00 -13°C° 0 mm 2 mps 578 mmHg 64%
    04:00 -13°C° 0 mm 2 mps 578 mmHg 63%
    05:00 -12°C° 0.3 mm 2 mps 579 mmHg 71%
    06:00 -10°C° 0.3 mm 2 mps 580 mmHg 79%
    07:00 -9°C° 0.3 mm 2 mps 581 mmHg 87%
    08:00 -8°C° 0.4 mm 2 mps 581 mmHg 88%
    09:00 -8°C° 0.4 mm 2 mps 582 mmHg 89%
    10:00 -6°C° 0.4 mm 1 mps 582 mmHg 89%
    11:00 -4°C° 0.4 mm 1 mps 583 mmHg 89%
    12:00 -4°C° 0.4 mm 1 mps 583 mmHg 89%
    13:00 -3°C° 0.4 mm 1 mps 584 mmHg 89%
    14:00 -3°C° 0.3 mm 1 mps 584 mmHg 90%
    15:00 -4°C° 0.3 mm 1 mps 584 mmHg 90%
    16:00 -4°C° 0.3 mm 1 mps 585 mmHg 91%
    17:00 -4°C° 0.1 mm 1 mps 585 mmHg 88%
    18:00 -4°C° 0.1 mm 1 mps 586 mmHg 86%
    19:00 -4°C° 0.1 mm 1 mps 586 mmHg 83%
    20:00 -6°C° 0.1 mm 2 mps 587 mmHg 83%
    21:00 -5°C° 0.1 mm 2 mps 587 mmHg 84%
    22:00 -5°C° 0.1 mm 2 mps 588 mmHg 84%
    23:00 -5°C° 0 mm 2 mps 588 mmHg 82%
    Show more